This is the latest recevied weather packets stored in our database for station/object WE0DX-1. If no packets are shown the sender has not sent any weather packets the latest 10 day(s).
| Time | Temp. | Humidity | Pressure | Rain* | Wind** | Luminosity | Snow |
|---|---|---|---|---|---|---|---|
| 1777470062 | 8.89° C | 83% | 1020.4 hPa | 0 mm | - | 96 W/m² | - |
| 1777469757 | 8.89° C | 83% | 1020.5 hPa | 0 mm | - | 79 W/m² | - |
| 1777469453 | 8.89° C | 84% | 1020.6 hPa | 0 mm | - | 82 W/m² | - |
| 1777469147 | 8.89° C | 84% | 1020.6 hPa | 0 mm | - | 78 W/m² | - |
| 1777468842 | 8.89° C | 84% | 1020.7 hPa | 0 mm | - | 60 W/m² | - |
| 1777468539 | 8.89° C | 85% | 1020.5 hPa | 0 mm | - | 105 W/m² | - |
| 1777468235 | 8.33° C | 85% | 1020.5 hPa | 0 mm | - | 75 W/m² | - |
| 1777467932 | 8.33° C | 85% | 1020.3 hPa | 0 mm | - | 82 W/m² | - |
| 1777467628 | 8.33° C | 86% | 1020.5 hPa | 0 mm | - | 67 W/m² | - |
| 1777467323 | 7.78° C | 87% | 1020.4 hPa | 0 mm | - | 55 W/m² | - |
| 1777467019 | 7.78° C | 88% | 1020.3 hPa | 0 mm | - | 49 W/m² | - |
| 1777466717 | 7.78° C | 88% | 1020.5 hPa | 0 mm | - | 46 W/m² | - |
| 1777466415 | 7.78° C | 88% | 1020.2 hPa | 0 mm | - | 40 W/m² | - |
| 1777466110 | 7.78° C | 88% | 1020.3 hPa | 0 mm | - | 44 W/m² | - |
| 1777465807 | 7.22° C | 89% | 1020.3 hPa | 0 mm | - | 45 W/m² | - |
| 1777465502 | 7.22° C | 89% | 1020 hPa | 0 mm | - | 34 W/m² | - |
| 1777465201 | 7.22° C | 89% | 1020.1 hPa | 0 mm | - | 24 W/m² | - |
| 1777464897 | 7.22° C | 89% | 1020 hPa | 0 mm | - | 31 W/m² | - |
| 1777464592 | 7.22° C | 89% | 1019.4 hPa | 0 mm | - | 29 W/m² | - |
| 1777464289 | 7.22° C | 89% | 1019.5 hPa | 0 mm | - | 24 W/m² | - |
| 1777463984 | 6.67° C | 90% | 1019.5 hPa | 0 mm | - | 23 W/m² | - |
| 1777463680 | 6.67° C | 90% | 1019.6 hPa | 0 mm | - | 19 W/m² | - |
| 1777463374 | 6.67° C | 91% | 1019.8 hPa | 0 mm | - | 15 W/m² | - |
| 1777463071 | 6.67° C | 91% | 1019.5 hPa | 0 mm | - | 11 W/m² | - |
| 1777462767 | 6.67° C | 91% | 1019.2 hPa | 0 mm | - | 8 W/m² | - |
* Rain latest hour (hover to see other rain measurements)
** Current wind speed in m/s (hover to see current wind gust speed)